2021-022X

Last updated on Thu Apr 22 2021 00:02:03 GMT+0000 (Coordinated Universal Time)

1 47953U 21022X 21111.44256444 .00000212 00000-0 18924-4 0 9997 2 47953 97.5600 14.7299 0022100 142.6974 332.9836 15.05605630 4208
UTC large
Height (km)
Speed (km/s)
/
Latitude / Longitude
Inclination (degrees)
Orbital Period (minutes)
Azimuth
Elevation
Range (km)
Doppler Factor

Next 0 passes for location: London (51.5072 / 0.1276)

Sorry there are no passes over London.